[[[{"header":{"parameterUnit":"kt","parameterCategory":2,"dx":1,"dy":1,"la1":30.253999710083008,"la2":30.299108505249023,"lo1":-89.0895004272461,"lo2":-89.04439544677734,"nx":28,"ny":28,"refTime":"2022-10-20T21:00:00:Z","depth":0,"parameterNumber":1,"parameterNumberName":"U-component_of_WINDS"},"data":[-6.6324,-6.6437,-6.6463,-6.6604,-6.6651,-6.6752,-6.6796,-6.6856,-6.691,-6.7033,-6.7108,-6.7145,-6.7209,-6.7305,-6.7387,-6.7402,-6.7434,-6.7456,-6.7469,-6.7348,-6.7333,-6.7318,-6.7292,-6.7464,-6.7464,-6.759,-6.7592,-6.7592,-6.6235,-6.6283,-6.6365,-6.6462,-6.6533,-6.6528,-6.6604,-6.6663,-6.6753,-6.682,-6.6895,-6.7005,-6.7095,-6.7152,-6.7243,-6.7296,-6.7298,-6.7319,-6.7314,-6.7324,-6.7196,-6.7169,-6.7316,-6.7316,-6.7316,-6.7316,-6.7316,-6.7316,-6.6081,-6.6148,-6.6221,-6.631,-6.6366,-6.643,-6.6498,-6.6542,-6.6622,-6.6719,-6.6734,-6.6836,-6.6907,-6.7028,-6.7074,-6.7155,-6.7136,-6.7166,-6.7173,-6.718,-6.7184,-6.6997,-6.7171,-6.7171,-6.7171,-6.717,-6.717,0,-6.5975,-6.5992,-6.6072,-6.616,-6.6226,-6.6296,-6.6365,-6.6408,-6.645,-6.6515,-6.661,-6.6668,-6.6785,-6.6876,-6.6966,-6.7008,-6.7007,-6.701,-6.7031,-6.7024,-6.7008,-6.7017,-6.6806,-6.7004,-6.7003,-6.7002,-6.7001,-6.7,-6.582,-6.5895,-6.5983,-6.6036,-6.6079,-6.6164,-6.6219,-6.6251,-6.6308,-6.6396,-6.6453,-6.6546,-6.6621,-6.6769,-6.6817,-6.6904,-6.6903,-6.6976,-6.6916,-6.6908,-6.6903,-6.6898,-6.6906,-6.6986,-6.6988,-6.699,-6.6991,0,-6.573,-6.5771,-6.5894,-6.5973,-6.5996,-6.6072,-6.614,-6.6207,-6.6241,-6.6339,-6.6364,-6.6417,-6.6509,-6.6546,-6.6658,-6.6674,-6.6801,-6.68,-6.6777,-6.6778,-6.6846,-6.6839,-6.7063,-6.7094,-6.6919,-6.6921,-6.6922,0,-6.5613,-6.5709,-6.5763,-6.5833,-6.5941,-6.597,-6.6077,-6.6116,-6.6177,-6.6254,-6.6259,-6.6331,-6.6367,-6.6444,-6.6468,-6.6579,-6.66,-6.6618,-6.6623,-6.6617,-6.6614,-6.6645,-6.6636,-6.6632,-6.6631,-6.663,-6.6629,0,-6.5466,-6.5608,-6.5721,-6.576,-6.5853,-6.5905,-6.5946,-6.6014,-6.6068,-6.6143,-6.6178,-6.6263,-6.631,-6.6376,-6.6405,-6.6363,-6.6541,-6.6489,-6.656,-6.6559,-6.6595,-6.6592,-6.6784,-6.6628,-6.6627,-6.6627,-6.6627,0,-6.5376,-6.5452,-6.561,-6.5687,-6.5723,-6.5798,-6.5883,-6.5955,-6.6027,-6.6046,-6.6105,-6.6112,-6.6211,-6.6157,-6.6294,-6.6231,-6.6276,-6.6303,-6.6309,-6.6318,-6.6255,-6.6357,-6.6537,-6.6557,-6.633,-6.6327,-6.6325,0,-6.5198,-6.5367,-6.5392,-6.5542,-6.5624,-6.5624,-6.5707,-6.5769,-6.5802,-6.5877,-6.5914,-6.5998,-6.5966,-6.5997,-6.6061,-6.6101,-6.6184,-6.6091,-6.6198,-6.6201,-6.6177,-6.6344,-6.6361,-6.6494,-6.6294,-6.6297,-6.63,0,-6.5063,-6.5174,-6.5199,-6.5244,-6.533,-6.5399,-6.5495,-6.5585,-6.5634,-6.5703,-6.5783,-6.5904,-6.5884,-6.5935,-6.5948,-6.6012,-6.6128,-6.5982,-6.5984,-6.6006,-6.6281,-6.6297,-6.6319,-6.6123,-6.6127,-6.613,-6.6275,0,-6.4917,-6.5006,-6.5075,-6.5172,-6.5231,-6.5326,-6.5363,-6.542,-6.5427,-6.5459,-6.5578,-6.5637,-6.5727,-6.5762,-6.5769,-6.5904,-6.5887,-6.5864,-6.5811,-6.5921,-6.5969,-6.5989,-6.5736,-6.5735,-6.5734,-6.5733,0,0,-6.4735,-6.4863,-6.4885,-6.4979,-6.5029,-6.5025,-6.5123,-6.5173,-6.5271,-6.5306,-6.5278,-6.5455,-6.5504,-6.5644,-6.5681,-6.5718,-6.5745,-6.5704,-6.5869,-6.5883,-6.5897,-6.5949,-6.5969,-6.5731,-6.573,-6.573,-6.573,0,-6.4688,-6.4739,-6.4836,-6.4888,-6.4965,-6.4993,-6.5017,-6.5092,-6.5116,-6.5232,-6.5226,-6.5301,-6.5441,-6.5494,-6.5539,-6.5689,-6.5679,-6.5715,-6.5783,-6.5856,-6.5873,-6.5887,-6.5941,-6.596,-6.5727,-6.5727,-6.5727,0,-6.4561,-6.4617,-6.4667,-6.4782,-6.4832,-6.4917,-6.4872,-6.4963,-6.5026,-6.5014,-6.5129,-6.5167,-6.5239,-6.5367,-6.5425,-6.54,-6.5617,-6.5555,-6.5563,-6.5569,-6.5642,-6.5661,-6.5679,-6.5447,-6.5446,-6.5444,0,0,-6.4515,-6.4598,-6.4666,-6.4775,-6.4807,-6.485,-6.4898,-6.4909,-6.4975,-6.5001,-6.5048,-6.5112,-6.5193,-6.5246,-6.5325,-6.546,-6.5476,-6.5519,-6.5532,-6.5543,-6.5555,-6.563,-6.5649,-6.544,-6.544,-6.544,0,0,-6.4493,-6.4576,-6.4571,-6.4702,-6.4765,-6.4838,-6.4903,-6.4898,-6.4972,-6.4965,-6.4987,-6.5005,-6.5124,-6.5161,-6.51,-6.5306,-6.5254,-6.5269,-6.5278,-6.5295,-6.5308,-6.5296,-6.506,0,0,0,0,0,-6.4463,-6.4566,-6.456,-6.4588,-6.4732,-6.4841,-6.486,-6.488,-6.4843,-6.4895,-6.4933,-6.4919,-6.5133,-6.5079,-6.5106,-6.5172,-6.5385,-6.5395,-6.5404,-6.5447,-6.5465,-6.548,0,0,0,0,0,0,-6.4474,-6.4507,-6.4558,-6.4634,-6.4667,-6.4838,-6.4779,-6.4788,-6.4838,-6.4834,-6.4912,-6.4921,-6.494,-6.5067,-6.5091,-6.5154,-6.5052,-6.5389,-6.5398,-6.5405,-6.5453,-6.5468,-6.548,0,0,0,0,0,-6.4482,-6.4509,-6.4735,-6.4633,-6.4662,-6.4714,-6.4775,-6.4782,-6.4821,-6.4881,-6.4889,-6.4832,-6.4942,-6.4963,-6.5081,-6.5142,-6.5036,-6.5044,-6.5395,-6.5401,-6.5407,-6.546,0,0,0,0,0,0,-6.4489,-6.4516,-6.4741,-6.475,-6.4595,-6.4705,-6.4723,-6.4777,-6.4865,-6.4875,-6.4801,-6.4797,-6.4944,-6.496,-6.4976,-6.5137,-6.5022,-6.5031,-6.5037,-6.54,-6.5405,-6.5409,0,0,0,0,0,0,-6.4502,-6.4524,-6.4746,-6.4697,-6.4701,-6.4696,-6.4712,-6.4815,-6.4866,-6.4781,-6.478,-6.4798,-6.4919,-6.4958,-6.4971,-6.5131,-6.5012,-6.5021,-6.5027,-6.503,-6.5404,-6.5408,0,0,0,0,0,0,-6.4511,-6.4531,-6.4695,-6.4698,-6.4701,-6.4808,-6.4787,-6.4934,-6.4825,-6.4777,-6.4816,-6.4811,-6.4918,-6.4931,-6.4967,-6.5122,-6.5129,-6.5013,-6.5018,-6.5023,-6.5025,0,0,0,0,0,0,0,-6.4519,-6.4386,-6.4686,-6.4698,-6.4701,-6.4837,-6.484,-6.4842,-6.4824,-6.482,-6.4817,-6.4813,-6.4964,-6.4973,-6.4983,-6.5115,0,0,-6.5012,-6.5016,0,0,0,0,0,0,0,0,-6.4379,-6.4384,-6.4686,-6.4688,-6.469,-6.4838,-6.484,-6.4842,-6.4823,-6.482,-6.4817,-6.4815,-6.4967,-6.4974,-6.4982,0,0,0,0,0,0,0,0,0,0,0,0,0,0,0,-6.4686,-6.4688,0,-6.4838,-6.484,-6.4841,-6.4823,-6.482,-6.4818,-6.4816,-6.4969,-6.4975,-6.4981,0,0,0,0,0,0,0,0,0,0,0,0,0,0,0,0,0,0,0,0,0,0,0,0,0,0,0,0,0,0,0,0,0,0,0,0,0,0,0,0,0,0,0,0,0,0,0,0,0,0,0,0,0,0,0,0,0,0,0,0,0,0,0,0,0,0,0,0,0]}],[{"header":{"parameterUnit":"kt","parameterCategory":2,"dx":1,"dy":1,"la1":30.253999710083008,"la2":30.299108505249023,"lo1":-89.0895004272461,"lo2":-89.04439544677734,"nx":28,"ny":28,"refTime":"2022-10-20T21:00:00:Z","depth":0,"parameterNumber":2,"parameterNumberName":"V-component_of_WINDS"},"data":[2.3073,2.3027,2.2982,2.2908,2.2856,2.2797,2.2761,2.271,2.2658,2.2582,2.253,2.2478,2.2406,2.2332,2.2272,2.225,2.2227,2.2246,2.2216,2.2177,2.2168,2.216,2.2168,2.2242,2.2243,2.2263,2.2263,2.2263,2.3055,2.3003,2.2951,2.2868,2.2823,2.2779,2.271,2.2674,2.2622,2.2556,2.2501,2.243,2.2366,2.2285,2.2216,2.2192,2.2166,2.2177,2.2176,2.2165,2.2122,2.2131,2.22,2.22,2.22,2.22,2.22,2.22,2.301,2.2983,2.2906,2.2848,2.2794,2.2739,2.2705,2.2641,2.2588,2.251,2.2464,2.2402,2.2326,2.2217,2.2168,2.2119,2.2097,2.2093,2.2092,2.2092,2.2099,2.2077,2.2105,2.2104,2.2104,2.2104,2.2103,0,2.2961,2.2925,2.2869,2.2802,2.2756,2.2698,2.2636,2.2613,2.2516,2.2475,2.2412,2.2367,2.2278,2.2212,2.2135,2.2083,2.2028,2.2018,2.2014,2.2035,2.2066,2.2049,2.198,2.2016,2.2015,2.2014,2.2014,2.2013,2.2911,2.2884,2.278,2.2747,2.2701,2.2649,2.2608,2.2524,2.2484,2.2394,2.2374,2.2307,2.2247,2.2152,2.2073,2.2006,2.1977,2.1997,2.1966,2.199,2.1976,2.1978,2.1975,2.2003,2.2004,2.2005,2.2006,0,2.2887,2.2809,2.2752,2.2649,2.2622,2.2598,2.2509,2.2478,2.2417,2.2365,2.2348,2.2251,2.2189,2.2106,2.2016,2.1975,2.1935,2.191,2.1962,2.1952,2.196,2.196,2.2001,2.2002,2.1925,2.1926,2.1926,0,2.2812,2.2779,2.2665,2.2635,2.2597,2.2511,2.2475,2.2418,2.2349,2.2307,2.2232,2.2194,2.2093,2.2043,2.1981,2.1933,2.1916,2.1881,2.1864,2.1886,2.189,2.186,2.1856,2.1828,2.1828,2.1828,2.1828,0,2.2781,2.268,2.2632,2.2596,2.248,2.2459,2.241,2.233,2.2289,2.2223,2.2195,2.2124,2.2084,2.2031,2.1951,2.1934,2.1891,2.185,2.1854,2.1856,2.1846,2.1847,2.1907,2.1828,2.1828,2.1828,2.1828,0,2.2706,2.2642,2.2584,2.2485,2.2461,2.2429,2.2353,2.2306,2.2227,2.2185,2.2132,2.207,2.202,2.1987,2.1918,2.1918,2.1883,2.1844,2.1843,2.1831,2.1794,2.1838,2.1905,2.1908,2.1825,2.1825,2.1825,0,2.2692,2.2611,2.2536,2.2482,2.2432,2.235,2.2313,2.2244,2.2185,2.2134,2.2068,2.201,2.1967,2.1936,2.1913,2.1842,2.1842,2.184,2.1765,2.1764,2.1788,2.185,2.1879,2.19,2.1823,2.1823,2.1823,0,2.267,2.2527,2.2522,2.2477,2.2371,2.2328,2.2285,2.2207,2.2178,2.2107,2.2068,2.1983,2.1947,2.1896,2.1836,2.1817,2.184,2.1779,2.1776,2.1793,2.1815,2.1844,2.1848,2.1804,2.1804,2.1804,2.1822,0,2.2575,2.2522,2.2506,2.2406,2.236,2.232,2.2228,2.2191,2.2139,2.2076,2.2017,2.1934,2.1852,2.1834,2.1781,2.1763,2.1752,2.1713,2.167,2.1712,2.1715,2.1717,2.1673,2.1671,2.167,2.1668,0,0,2.258,2.2502,2.2416,2.237,2.2325,2.2238,2.2203,2.2149,2.204,2.2011,2.1987,2.1855,2.1787,2.1724,2.173,2.1696,2.1684,2.1672,2.1693,2.1696,2.1699,2.1704,2.1707,2.1666,2.1665,2.1665,2.1664,0,2.2525,2.246,2.2427,2.2367,2.2275,2.2209,2.2202,2.2094,2.2051,2.1991,2.1916,2.1869,2.1763,2.1702,2.1657,2.1679,2.1623,2.1661,2.1704,2.1681,2.1686,2.1691,2.1698,2.1702,2.166,2.1661,2.1661,0,2.2485,2.2407,2.238,2.2273,2.221,2.216,2.2095,2.2043,2.2004,2.1906,2.1847,2.1788,2.1697,2.1648,2.1623,2.16,2.1574,2.1564,2.1571,2.1565,2.1538,2.1545,2.1551,2.1475,2.1475,2.1475,0,0,2.245,2.2399,2.2285,2.2253,2.222,2.212,2.2083,2.2025,2.1946,2.1914,2.1836,2.1761,2.1698,2.1659,2.1595,2.1555,2.1528,2.1545,2.1554,2.1561,2.156,2.1535,2.1542,2.1474,2.1474,2.1474,0,0,2.2431,2.2298,2.2258,2.221,2.2139,2.2022,2.2006,2.1954,2.1886,2.188,2.1778,2.1753,2.1705,2.1649,2.1648,2.1578,2.1538,2.1536,2.1616,2.1625,2.1634,2.1647,2.1565,0,0,0,0,0,2.2326,2.2315,2.2281,2.2258,2.2119,2.2042,2.2023,2.1939,2.1914,2.1904,2.183,2.1772,2.1628,2.1624,2.1603,2.1604,2.1462,2.1464,2.1466,2.1558,2.157,2.1579,0,0,0,0,0,0,2.2316,2.229,2.2281,2.2165,2.2133,2.2041,2.198,2.1956,2.1913,2.1903,2.1789,2.1769,2.1695,2.1629,2.1611,2.1614,2.1571,2.1463,2.1464,2.1466,2.1562,2.1571,2.1579,0,0,0,0,0,2.2309,2.2287,2.2086,2.2164,2.2136,2.2023,2.1979,2.1959,2.1924,2.1808,2.1786,2.1865,2.1697,2.1676,2.1618,2.1624,2.1583,2.1576,2.1464,2.1465,2.1467,2.1567,0,0,0,0,0,0,2.2303,2.2267,2.2078,2.2066,2.2161,2.2026,2.2002,2.1962,2.183,2.1808,2.1879,2.1873,2.1699,2.1682,2.1666,2.1633,2.1592,2.1586,2.1582,2.1465,2.1466,2.1467,0,0,0,0,0,0,2.2278,2.2258,2.2072,2.2073,2.206,2.203,2.2008,2.1946,2.1829,2.1908,2.1898,2.1878,2.1721,2.1686,2.1674,2.1579,2.16,2.1594,2.1589,2.1587,2.1466,2.1467,0,0,0,0,0,0,2.2268,2.2251,2.2075,2.2066,2.2055,2.1917,2.1972,2.1834,2.1832,2.1915,2.183,2.1828,2.1727,2.1713,2.1679,2.1591,2.1582,2.16,2.1595,2.1592,2.159,0,0,0,0,0,0,0,2.226,2.2397,2.2148,2.206,2.205,2.1958,2.1955,2.1952,2.1832,2.1831,2.183,2.1829,2.1635,2.1628,2.1621,2.16,0,0,2.16,2.1597,0,0,0,0,0,0,0,0,2.2403,2.2398,2.2147,2.2145,2.2142,2.1958,2.1955,2.1953,2.1832,2.1831,2.183,2.1829,2.1633,2.1628,2.1622,0,0,0,0,0,0,0,0,0,0,0,0,0,0,0,2.2147,2.2145,0,2.1958,2.1955,2.1953,2.1832,2.1831,2.183,2.183,2.1631,2.1627,2.1622,0,0,0,0,0,0,0,0,0,0,0,0,0,0,0,0,0,0,0,0,0,0,0,0,0,0,0,0,0,0,0,0,0,0,0,0,0,0,0,0,0,0,0,0,0,0,0,0,0,0,0,0,0,0,0,0,0,0,0,0,0,0,0,0,0,0,0,0,0]}]]]